User: anonymous   Login
Location: Meriden
(44.0740°N, 93.3870°W)
Time: 07:20:27
(UTC-06:00)
Language:

AO-27 - Orbit

View from above orbital plane
View from above orbital plane
View from above satellite
View from above satellite

Ground track
Ground track

The orbit data is extracted from the following two-line orbital elements,

1 22825U 93061C   17024.12405743  .00000007  00000-0  20422-4 0  9999
2 22825  98.7921 348.0938 0009079  38.0366 322.1455 14.29983735216814
Epoch (UTC): 24 January 2017 02:58:38
Eccentricity: 0.0009079
inclination: 98.7921°
perigee height: 785 km
apogee height: 798 km
right ascension of ascending node: 348.0938°
argument of perigee: 38.0366°
revolutions per day: 14.29983735
mean anomaly at epoch: 322.1455°
orbit number at epoch: 21681

The dashed part of the orbit path shows where the satellite is in the earth's shadow,  

DLR